Regional Weather Roundup
Issued by NWS

Home | Current Version | Previous Version | Text Only | Print | Product List | Glossary Off
Versions: 1 2 3 4 5 6 7 8 9 10 11 12 13 14 15 16 17 18 19 20 21 22 23 24 25 26 27 28 29 30 31 32 33 34 35 36 37 38 39 40 41 42 43 44 45 46 47 48 49 50

000
ASUS43 KLOT 281810
RWRIL

ILLINOIS REGIONAL WEATHER ROUNDUP
NATIONAL WEATHER SERVICE CHICAGO/ROMEOVILLE IL
1200 PM CST FRI NOV 28 2014

NOTE: "FAIR" INDICATES FEW OR NO CLOUDS BELOW 12,000 FEET WITH NO
SIGNIFICANT WEATHER AND/OR OBSTRUCTIONS TO VISIBILITY.

* THESE STATIONS ARE NOT UNDER NWS QUALITY CONTROL. THEY ALSO MAY NOT
  REPORT WEATHER SUCH AS PRECIPITATION OR FOG.

ILZ001-002-007-009-015-016-024-281900-
NORTHWEST ILLINOIS

CITY           SKY/WX    TMP DP  RH WIND       PRES   REMARKS
MOLINE         PTSUNNY   30  23  75 S7        29.99F WCI  23
6HR MIN TEMP:  17; 6HR MAX TEMP:  30;

STERLING*      CLOUDY    28  21  74 S8        30.03F WCI  20
SAVANNA*       CLOUDY    29  22  74 SE10      30.01F WCI  20
$$

ILZ003-004-008-010-011-017-018-281900-
NORTH CENTRAL ILLINOIS

CITY           SKY/WX    TMP DP  RH WIND       PRES   REMARKS
ROCKFORD       CLOUDY    26  18  71 SE15      30.08F WCI  14
6HR MIN TEMP:  18; 6HR MAX TEMP:  26;

FREEPORT*      CLOUDY    24  18  77 SE13      30.06F WCI  13
ROCHELLE*      CLOUDY    26  21  81 SE16G22   30.05F WCI  14
DE KALB*       CLOUDY    25  18  75 SE20G25   30.06F WCI  11
PERU*          CLOUDY    32  26  79 S16       30.06F WCI  21
$$

ILZ005-006-012>014-019>023-281900-
NORTHEAST ILLINOIS

CITY           SKY/WX    TMP DP  RH WIND       PRES   REMARKS
CHICAGO-OHARE  CLOUDY    27  16  63 SE16      30.10F WCI  15
6HR MIN TEMP:  20; 6HR MAX TEMP:  27; 6HR PCP: TRACE;

CHICAGO-MIDWAY CLOUDY    30  16  56 SE13G23   30.12F WCI  20
6HR MIN TEMP:  22; 6HR MAX TEMP:  30; 6HR PCP: TRACE;

AURORA         CLOUDY    28  17  63 SE17      30.08F WCI  16
6HR MIN TEMP:  19; 6HR MAX TEMP:  28;

LANSING*       MOSUNNY   29  17  60 S10       30.15F WCI  20
JOLIET*        MOSUNNY   29  19  67 SE9G18    30.11F WCI  20
WAUKEGAN       CLOUDY    25  15  66 SE10      30.08F WCI  15
6HR MIN TEMP:  18; 6HR MAX TEMP:  25; 6HR PCP: TRACE;

DUPAGE AIRPORT PTSUNNY   27  16  63 S12       30.08F WCI  17
6HR MIN TEMP:  19; 6HR MAX TEMP:  27;

KANKAKEE*      MOSUNNY   30  20  66 SE15G21   30.13F WCI  19
WHEELING       PTSUNNY   26  15  63 S14       30.12F WCI  14
6HR MIN TEMP:  20; 6HR MAX TEMP:  26; 6HR PCP: TRACE;

MORRIS*        PTSUNNY   29  23  77 S18G25    30.09F WCI  17
ROMEOVILLE*    PTSUNNY   28  19  67 S20       30.09F WCI  15
NORTHERLY ISL    N/A     29  16  58 S13         N/A  WCI  19
$$

LMZ740>746-281900-
SOUTHERN LAKE MICHIGAN

STATION/POSITION SKY/WX   TEMP    WIND        PRES    VSBY  WAVE
                          AIR SEA DIR/SP/G                  HT/PER
                          (F)     (DEG/KT/KT) (MB)    (MI)  (FT/S)
SOUTHERN BUOY              29 42  170/ 19/ 25 1021.4F         4/ 5
WAUKEGAN HARBOR            26     170/ 14/ 17   N/A
HARRISON CRIB              26     160/ 17/ 23   N/A
BURNHAM HARBOR             29     150/ 13/ 15   N/A
CALUMET HARBOR             28     160/ 12/ 15 1019.3F
MICHIGAN CITY              26     150/ 12/ 18   N/A
$$

ILZ025>027-034>036-040-047-049-050-058-095>099-281900-
WEST-CENTRAL ILLINOIS

CITY           SKY/WX    TMP DP  RH WIND       PRES   REMARKS
QUINCY         SUNNY     42  29  59 S13       29.97F
GALESBURG*     MOSUNNY   31  25  80 S12G17    30.00F WCI  21
MACOMB*        MOSUNNY   32  28  84 S15       30.02F WCI  22
JACKSONVILLE*  SUNNY     39  30  71 S12G18    30.03F WCI  31
PITTSFIELD*    SUNNY     41  31  68 S14G20    30.00F
$$

ILZ028>032-037-038-041>044-048-051>054-059>061-281900-
CENTRAL ILLINOIS

CITY           SKY/WX    TMP DP  RH WIND       PRES   REMARKS
PONTIAC        CLOUDY    34  28  79 S23G29    30.08F WCI  22
BLOOMINGTON    CLOUDY    36  29  76 S25       30.06F WCI  24
DECATUR        MOSUNNY   34  27  75 S18       30.10F WCI  23
PEORIA         MOSUNNY   34  25  69 S14G26    30.04F WCI  25
6HR MIN TEMP:  19; 6HR MAX TEMP:  34;

LACON*         PTSUNNY   33  26  73 S9G17     30.04F WCI  26
LINCOLN*       MOSUNNY   35  28  78 S18       30.09F WCI  24
SPRINGFIELD    MOSUNNY   35  28  75 S21       30.06F WCI  24
6HR MIN TEMP:  18; 6HR MAX TEMP:  35;

TAYLORVILLE    MOSUNNY   34  28  80 S21G26    30.08F WCI  22
$$

ILZ033-039-045-046-055>057-062-063-281900-
EAST-CENTRAL ILLINOIS

CITY           SKY/WX    TMP DP  RH WIND       PRES   REMARKS
CHAMPAIGN      PTSUNNY   34  27  75 S24       30.13F WCI  21
DANVILLE*      PTSUNNY   30  23  75 S14       30.14F WCI  20
RANTOUL*       PTSUNNY   35  28  76 S23       30.12F WCI  23
MATTOON        PTSUNNY   33  26  75 S17G31    30.15F WCI  22
PARIS*         PTSUNNY   33  28  82 S17       30.19F WCI  22
$$

ILZ079-100>102-281900-
SOUTHWEST ILLINOIS

CITY           SKY/WX    TMP DP  RH WIND       PRES   REMARKS
ALTON          MOSUNNY   39  30  70 S21       30.09F WCI  29
BELLEVILLE     SUNNY     40  33  74 S15G25    30.10F
CAHOKIA*       SUNNY     44  32  62 S15G24    30.09F
SPARTA*        SUNNY     40  31  70 S14G23    30.15F
$$

ILZ064>066-069>071-074>076-080>082-084>086-088>090-092>094-281900-
SOUTH-CENTRAL ILLINOIS

CITY           SKY/WX    TMP DP  RH WIND       PRES   REMARKS
CARBONDALE     SUNNY     44  30  57 S21G28    30.21F
6HR MIN TEMP:  24; 6HR MAX TEMP:  44;

CAIRO*         SUNNY     45  33  62 S12G20    30.25F
EFFINGHAM*     MOSUNNY   36  26  66 S14       30.17F WCI  27
MARION         MOSUNNY   43  32  65 S14G23    30.22F
MT. VERNON     SUNNY     39  30  70 S14       30.21F WCI  31
CENTRALIA*     SUNNY     37  28  71 S17G26    30.16F WCI  27
SALEM*           N/A     39  30  69 S14       30.17F WCI  31
METROPOLIS*    SUNNY     44  32  62 S10G16      N/A
$$

ILZ067-068-072-073-078-083-087-091-281900-
SOUTHEAST ILLINOIS

CITY           SKY/WX    TMP DP  RH WIND       PRES   REMARKS
LAWRENCEVILLE  MOSUNNY   37  30  75 S15       30.25F WCI  28
FLORA*         MOSUNNY   35  29  81 S16       30.21F WCI  25
FAIRFIELD*     MOSUNNY   36  30  79 S16       30.22F WCI  26
HARRISBURG*    SUNNY     42  31  64 S12       30.25F
ROBINSON*      PTSUNNY   35  29  78 S14       30.24F WCI  26
CARMI*         SUNNY     39  35  84 SE12      30.24F WCI  32
$$

ABBREVIATIONS USED IN REMARKS
   TC - TEMPERATURE IN CELSIUS
  WCI - WIND CHILL INDEX
   HX - HEAT INDEX
  VSB - VISIBILITY
$$



USA.gov is the U.S. government's official web portal to all federal, state and local government web resources and services.